N55XZ KLAL-

Flight info

Callsign N55XZ
Flight time N/A
Altitude VFR/020
Route VFR NORTH
Aircraft YK55/L-DOV/C

Departure

Time 2026-04-26 21:10
Airport Lakeland Linder International Airport (KLAL)

Arrival

Time N/A
Airport -
Time Latitude Longitude Altitude Speed Heading
2026-04-26 20:59 27.98620 -82.02125 127 ft 0 kts
2026-04-26 21:01 27.98621 -82.02125 127 ft 0 kts
2026-04-26 21:01 27.98622 -82.02125 127 ft 1 kts 46°
2026-04-26 21:01 27.98620 -82.02054 128 ft 21 kts 96°
2026-04-26 21:01 27.98633 -82.01993 129 ft 11 kts 317°
2026-04-26 21:02 27.98640 -82.01993 129 ft 6 kts
2026-04-26 21:02 27.98687 -82.01994 129 ft 15 kts 359°
2026-04-26 21:02 27.98735 -82.01966 129 ft 13 kts 84°
2026-04-26 21:02 27.98733 -82.01905 129 ft 17 kts 94°
2026-04-26 21:03 27.98731 -82.01735 131 ft 33 kts 84°
2026-04-26 21:03 27.98732 -82.01562 132 ft 34 kts 96°
2026-04-26 21:03 27.98730 -82.01392 132 ft 28 kts 90°
2026-04-26 21:03 27.98731 -82.01228 132 ft 27 kts 91°
2026-04-26 21:04 27.98733 -82.00964 136 ft 26 kts 92°
2026-04-26 21:04 27.98737 -82.00800 136 ft 24 kts 93°
2026-04-26 21:04 27.98795 -82.00757 136 ft 18 kts 356°
2026-04-26 21:04 27.98859 -82.00761 136 ft 0 kts 356°
2026-04-26 21:08 27.98909 -82.00768 136 ft 15 kts 355°
2026-04-26 21:09 27.98988 -82.00771 136 ft 13 kts
2026-04-26 21:09 27.99041 -82.00802 137 ft 10 kts 287°
2026-04-26 21:09 27.99046 -82.00884 136 ft 49 kts 268°
2026-04-26 21:09 27.99043 -82.01171 199 ft 95 kts 269°
2026-04-26 21:10 27.99041 -82.01511 313 ft 112 kts 268°
2026-04-26 21:10 27.99046 -82.01926 388 ft 125 kts 271°
2026-04-26 21:10 27.99057 -82.02524 528 ft 132 kts 269°
2026-04-26 21:10 27.99050 -82.02962 774 ft 102 kts 284°
2026-04-26 21:11 27.99091 -82.03149 854 ft 109 kts 278°
2026-04-26 21:11 27.99120 -82.03520 838 ft 127 kts 271°
2026-04-26 21:11 27.99136 -82.04417 919 ft 135 kts 271°
2026-04-26 21:11 27.99150 -82.05459 988 ft 140 kts 270°
2026-04-26 21:12 27.99164 -82.06389 1128 ft 141 kts 269°
2026-04-26 21:12 27.99158 -82.07204 1225 ft 143 kts 268°
2026-04-26 21:12 27.99147 -82.07983 1412 ft 140 kts 268°
2026-04-26 21:12 27.99118 -82.08793 1748 ft 135 kts 268°
2026-04-26 21:13 27.99098 -82.09625 2043 ft 133 kts 272°
2026-04-26 21:13 27.99242 -82.10332 2334 ft 132 kts 289°
2026-04-26 21:13 27.99494 -82.10960 2669 ft 129 kts 295°
2026-04-26 21:13 27.99689 -82.11356 2876 ft 130 kts 301°
2026-04-26 21:14 28.00011 -82.11722 3011 ft 135 kts 319°
2026-04-26 21:14 28.00499 -82.12046 2707 ft 147 kts 334°
2026-04-26 21:14 28.01294 -82.12178 2375 ft 163 kts 357°
2026-04-26 21:14 28.02220 -82.12119 2115 ft 169 kts 357°
2026-04-26 21:15 28.03198 -82.12099 1957 ft 171 kts 355°
2026-04-26 21:15 28.04029 -82.12106 1903 ft 169 kts 356°
2026-04-26 21:15 28.05018 -82.12048 1782 ft 168 kts 358°
2026-04-26 21:15 28.05783 -82.12048 1638 ft 169 kts 353°
2026-04-26 21:16 28.06591 -82.12135 1638 ft 165 kts 347°
2026-04-26 21:16 28.07724 -82.12341 1580 ft 165 kts 346°
2026-04-26 21:16 28.08374 -82.12477 1568 ft 164 kts 343°
2026-04-26 21:16 28.09088 -82.12682 1576 ft 162 kts 339°
2026-04-26 21:17 28.09845 -82.13021 1540 ft 161 kts 328°
2026-04-26 21:17 28.10512 -82.13404 1655 ft 157 kts 331°
2026-04-26 21:17 28.11168 -82.13728 1962 ft 149 kts 332°
2026-04-26 21:17 28.11843 -82.14082 2277 ft 142 kts 330°
2026-04-26 21:18 28.12449 -82.14425 2340 ft 146 kts 327°
2026-04-26 21:18 28.13058 -82.14817 2329 ft 150 kts 324°
2026-04-26 21:18 28.13694 -82.15281 2388 ft 152 kts 323°
2026-04-26 21:18 28.14135 -82.15572 2265 ft 158 kts 327°
2026-04-26 21:19 28.15344 -82.16290 2040 ft 162 kts 324°
2026-04-26 21:19 28.16142 -82.16802 1762 ft 167 kts 332°
2026-04-26 21:19 28.16777 -82.17048 1614 ft 171 kts 342°
2026-04-26 21:19 28.17980 -82.17099 1577 ft 169 kts
2026-04-26 21:20 28.18479 -82.17017 1511 ft 172 kts
2026-04-26 21:20 28.19344 -82.16725 1514 ft 172 kts 15°
2026-04-26 21:20 28.19985 -82.16441 1513 ft 172 kts 18°
2026-04-26 21:20 28.20948 -82.15918 1371 ft 178 kts 24°
2026-04-26 21:21 28.22039 -82.15742 1506 ft 161 kts 349°
2026-04-26 21:21 28.22902 -82.16085 1743 ft 151 kts 319°
2026-04-26 21:21 28.23644 -82.16770 1572 ft 159 kts 314°
2026-04-26 21:21 28.24045 -82.17838 1129 ft 127 kts 239°
2026-04-26 21:22 28.23769 -82.18122 1072 ft 116 kts 203°
2026-04-26 21:22 28.23186 -82.17962 1045 ft 114 kts 130°
2026-04-26 21:22 28.23239 -82.17259 1280 ft 98 kts 49°
2026-04-26 21:23 28.22995 -82.16778 715 ft 61 kts 236°
2026-04-26 21:23 28.23225 -82.17096 269 ft 78 kts 321°
2026-04-26 21:23 28.24002 -82.16702 903 ft 116 kts 36°
2026-04-26 21:23 28.24642 -82.16097 1186 ft 137 kts 35°
2026-04-26 21:24 28.25099 -82.15688 1268 ft 141 kts 36°
2026-04-26 21:24 28.25780 -82.15061 1306 ft 148 kts 36°
2026-04-26 21:24 28.26261 -82.14442 1231 ft 160 kts 70°
2026-04-26 21:24 28.26273 -82.14015 1262 ft 158 kts 107°
2026-04-26 21:25 28.25746 -82.13293 1264 ft 145 kts 179°
2026-04-26 21:25 28.25345 -82.13387 1132 ft 141 kts 209°
2026-04-26 21:25 28.24821 -82.13834 677 ft 129 kts 226°
2026-04-26 21:25 28.24541 -82.14140 533 ft 115 kts 227°
2026-04-26 21:26 28.24299 -82.14414 443 ft 102 kts 225°
2026-04-26 21:26 28.24117 -82.14589 364 ft 96 kts 224°
2026-04-26 21:26 28.23867 -82.14848 299 ft 84 kts 228°
2026-04-26 21:26 28.23564 -82.15168 178 ft 78 kts 226°
2026-04-26 21:27 28.23353 -82.15400 105 ft 76 kts 227°
2026-04-26 21:27 28.23193 -82.15565 105 ft 70 kts 229°
2026-04-26 21:27 28.22940 -82.15833 84 ft 63 kts 229°
2026-04-26 21:27 28.22705 -82.16078 83 ft 59 kts 218°
2026-04-26 21:28 28.22480 -82.16300 91 ft 55 kts 228°
2026-04-26 21:28 28.22308 -82.16507 323 ft 78 kts 231°
2026-04-26 21:28 28.22293 -82.16783 667 ft 84 kts 300°
2026-04-26 21:28 28.22444 -82.16951 807 ft 97 kts 311°
2026-04-26 21:29 28.22895 -82.17113 767 ft 134 kts
2026-04-26 21:29 28.23648 -82.16569 759 ft 145 kts 47°
2026-04-26 21:29 28.24102 -82.15984 719 ft 139 kts 44°
2026-04-26 21:29 28.24471 -82.15523 715 ft 116 kts 48°
2026-04-26 21:30 28.24464 -82.15178 620 ft 76 kts 148°
2026-04-26 21:30 28.24243 -82.15020 406 ft 73 kts 173°
2026-04-26 21:30 28.24069 -82.14990 285 ft 66 kts 188°
2026-04-26 21:30 28.23836 -82.14986 199 ft 70 kts 195°
2026-04-26 21:31 28.23535 -82.15202 152 ft 68 kts 231°
2026-04-26 21:31 28.23427 -82.15312 111 ft 51 kts 228°
2026-04-26 21:31 28.23289 -82.15479 83 ft 29 kts 220°
2026-04-26 21:31 28.23139 -82.15625 83 ft 26 kts 220°